De Kooy, Netherlands

10:29 AM CEST on September 30, 2016 (GMT +0200)
De Kooy Navy

Weather History for EHKD - December, 2012

Change the Weather History Date:

Tuesday, December 4, 2012

  Actual Average Record
Temperature  
Mean Temperature 39 °F -  
Max Temperature 45 °F 45 °F 55 °F (2006)
Min Temperature 33 °F 38 °F 24 °F (2010)
Degree Days  
Heating Degree Days 26    
Moisture  
Dew Point 36 °F    
Average Humidity 80    
Maximum Humidity 100    
Minimum Humidity 55    
Precipitation  
Precipitation 0.03 in - - ()
Sea Level Pressure  
Sea Level Pressure 29.42 in    
Wind  
Wind Speed 18 mph ()    
Max Wind Speed 31 mph    
Max Gust Speed 43 mph    
Visibility 6.3 miles    
Events Rain , Snow    
Averages and records for this station are not official NWS values.
T = Trace of Precipitation, MM = Missing Value Source: Averaged Metar Reports

Daily Weather History Graph

Daily Weather History Graph

Search for Another Location

Airport or City:

Trip Planner

Search our weather history database for the weather conditions in past years. The results will help you decide how hot, cold, wet, or windy it might be!

Date:

Astronomy

Dec. 04, 2012 Rise Set
Actual Time 8:35 AM CET 4:26 PM CET
Civil Twilight 7:54 AM CET 5:07 PM CET
Nautical Twilight 7:10 AM CET 5:51 PM CET
Astronomical Twilight 6:28 AM CET 6:33 PM CET
Moon 10:28 PM CET (12/4) 11:55 AM CET (12/4)
Length of Visible Light 9h 13m
Length of Day
7h 50m
Waning Gibbous, 72% of the Moon is Illuminated
Dec 4
Waning Gibbous
Dec 6
Last Quarter
Dec 13
New
Dec 20
First Quarter
Dec 28
Full

Hourly Weather History & Observations

Time (CET) Temp. Windchill Dew Point Humidity Pressure Visibility Wind Dir Wind Speed Gust Speed Precip Events Conditions
12:06 AM 44.6 °F 36.4 °F 37.4 °F 76% 29.47 in 6.2 mi West 20.7 mph - N/A   Partly Cloudy
12:25 AM 44.6 °F 36.6 °F 37.4 °F 76% 29.47 in 6.2 mi West 19.6 mph - N/A   Scattered Clouds
12:55 AM 42.8 °F 33.1 °F 37.4 °F 81% 29.47 in 2.8 mi West 25.3 mph 36.8 mph N/A   Heavy Drizzle
12:57 AM 44.6 °F 35.7 °F 39.2 °F 81% 29.47 in 6.2 mi West 24.2 mph 36.8 mph N/A Rain Light Rain
1:00 AM 44 °F - 38 °F 74% 29.48 in 9 mi West 22.4 mph - - Rain Drizzle
1:11 AM 44.6 °F 35.9 °F 39.2 °F 81% 29.47 in 6.2 mi West 23.0 mph - N/A   Mostly Cloudy
1:25 AM 44.6 °F 35.7 °F 37.4 °F 76% 29.44 in 6.2 mi West 24.2 mph - N/A   Mostly Cloudy
1:55 AM 44.6 °F 35.9 °F 37.4 °F 76% 29.44 in 6.2 mi West 23.0 mph - N/A   Mostly Cloudy
1:57 AM 44.6 °F 35.9 °F 37.4 °F 76% 29.44 in 6.2 mi West 23.0 mph - N/A   Mostly Cloudy
2:01 AM 44.6 °F 35.9 °F 37.4 °F 76% 29.44 in 6.2 mi West 23.0 mph - N/A   Mostly Cloudy
2:11 AM 42.8 °F 33.8 °F 37.4 °F 81% 29.44 in 6.2 mi West 21.9 mph - N/A   Scattered Clouds
2:15 AM 44.6 °F 36.4 °F 37.4 °F 76% 29.44 in 6.2 mi West 20.7 mph - N/A   Scattered Clouds
2:19 AM 44.6 °F 36.1 °F 37.4 °F 76% 29.44 in 6.2 mi West 21.9 mph - N/A   Scattered Clouds
2:25 AM 44.6 °F 36.4 °F 37.4 °F 76% 29.44 in 6.2 mi West 20.7 mph - N/A   Scattered Clouds
2:29 AM 44.6 °F 35.9 °F 37.4 °F 76% 29.44 in 6.2 mi West 23.0 mph - N/A   Scattered Clouds
2:34 AM 42.8 °F 33.5 °F 37.4 °F 81% 29.44 in 6.2 mi West 23.0 mph - N/A   Partly Cloudy
2:55 AM 44.6 °F 35.9 °F 37.4 °F 76% 29.44 in 6.2 mi West 23.0 mph - N/A   Mostly Cloudy
3:25 AM 44.6 °F 36.4 °F 35.6 °F 71% 29.42 in 6.2 mi West 20.7 mph - N/A   Scattered Clouds
3:39 AM 44.6 °F 36.4 °F 37.4 °F 76% 29.42 in 6.2 mi West 20.7 mph - N/A   Mostly Cloudy
3:55 AM 42.8 °F 34.0 °F 37.4 °F 81% 29.42 in 6.2 mi West 20.7 mph - N/A   Mostly Cloudy
4:00 AM 44 °F - 37 °F 69% 29.42 in 13 mi West 20.1 mph - -   Partly Cloudy
4:00 AM 42.8 °F 34.0 °F 37.4 °F 81% 29.42 in 6.2 mi West 20.7 mph - N/A   Mostly Cloudy
4:08 AM 44.6 °F 36.4 °F 37.4 °F 76% 29.42 in 6.2 mi West 20.7 mph - N/A   Mostly Cloudy
4:12 AM 44.6 °F 36.1 °F 37.4 °F 76% 29.42 in 6.2 mi West 21.9 mph - N/A   Mostly Cloudy
4:25 AM 42.8 °F 34.0 °F 37.4 °F 81% 29.42 in 6.2 mi West 20.7 mph - N/A   Scattered Clouds
4:49 AM 44.6 °F 36.4 °F 37.4 °F 76% 29.39 in 6.2 mi West 20.7 mph - N/A   Mostly Cloudy
4:55 AM 42.8 °F 34.0 °F 37.4 °F 81% 29.39 in 6.2 mi West 20.7 mph - N/A   Mostly Cloudy
5:07 AM 44.6 °F 36.4 °F 37.4 °F 76% 29.39 in 6.2 mi West 20.7 mph - N/A   Mostly Cloudy
5:11 AM 44.6 °F 35.9 °F 37.4 °F 76% 29.39 in 6.2 mi West 23.0 mph - N/A   Mostly Cloudy
5:25 AM 44.6 °F 36.1 °F 37.4 °F 76% 29.39 in 6.2 mi West 21.9 mph - N/A   Partly Cloudy
5:37 AM 42.8 °F 33.8 °F 37.4 °F 81% 29.39 in 3.7 mi West 21.9 mph - N/A   Mostly Cloudy
5:41 AM 41.0 °F 31.4 °F 37.4 °F 87% 29.39 in 6.2 mi West 21.9 mph - N/A Rain Light Rain
5:55 AM 42.8 °F 33.5 °F 37.4 °F 81% 29.39 in 3.7 mi West 23.0 mph 34.5 mph N/A Rain Light Rain
6:06 AM 42.8 °F 34.3 °F 37.4 °F 81% 29.36 in 6.2 mi West 19.6 mph - N/A Rain Light Rain
6:13 AM 42.8 °F 34.0 °F 37.4 °F 81% 29.36 in 3.7 mi West 20.7 mph - N/A Rain Light Rain
6:19 AM 42.8 °F 34.3 °F 39.2 °F 87% 29.36 in 6.2 mi West 19.6 mph - N/A   Mostly Cloudy
6:25 AM 42.8 °F 34.5 °F 39.2 °F 87% 29.36 in 6.2 mi West 18.4 mph - N/A Rain Light Rain
6:28 AM 42.8 °F 34.0 °F 39.2 °F 87% 29.36 in 6.2 mi West 20.7 mph - N/A Rain Light Rain
6:32 AM 42.8 °F 33.8 °F 37.4 °F 81% 29.36 in 6.2 mi West 21.9 mph - N/A   Drizzle
6:38 AM 42.8 °F 34.3 °F 39.2 °F 87% 29.36 in 6.2 mi West 19.6 mph - N/A   Mostly Cloudy
6:49 AM 42.8 °F 34.0 °F 39.2 °F 87% 29.36 in 6.2 mi West 20.7 mph - N/A   Mostly Cloudy
6:55 AM 42.8 °F 34.0 °F 39.2 °F 87% 29.36 in 6.2 mi West 20.7 mph - N/A   Mostly Cloudy
6:57 AM 42.8 °F 34.3 °F 39.2 °F 87% 29.36 in 6.2 mi West 19.6 mph - N/A   Mostly Cloudy
7:00 AM 44 °F - 39 °F 75% 29.37 in 10 mi West 20.1 mph - - Rain Rain
7:12 AM 44.6 °F 36.4 °F 35.6 °F 71% 29.36 in 6.2 mi West 20.7 mph - N/A   Mostly Cloudy
7:25 AM 44.6 °F 35.9 °F 37.4 °F 76% 29.36 in 6.2 mi West 23.0 mph - N/A   Mostly Cloudy
7:55 AM 44.6 °F 35.3 °F 35.6 °F 71% 29.36 in 6.2 mi West 26.5 mph - N/A   Mostly Cloudy
8:25 AM 44.6 °F 35.3 °F 37.4 °F 76% 29.33 in 6.2 mi West 26.5 mph - N/A   Overcast
8:34 AM 44.6 °F 35.5 °F 37.4 °F 76% 29.33 in 6.2 mi West 25.3 mph - N/A   Mostly Cloudy
8:45 AM 44.6 °F 35.3 °F 37.4 °F 76% 29.33 in 6.2 mi West 26.5 mph - N/A   Mostly Cloudy
8:55 AM 44.6 °F 35.5 °F 35.6 °F 71% 29.33 in 6.2 mi West 25.3 mph 36.8 mph N/A   Mostly Cloudy
9:07 AM 44.6 °F 35.1 °F 39.2 °F 81% 29.33 in 6.2 mi West 27.6 mph - N/A   Mostly Cloudy
9:27 AM 44.6 °F 34.7 °F 37.4 °F 76% 29.33 in 6.2 mi West 29.9 mph - N/A   Mostly Cloudy
9:35 AM 44.6 °F 34.7 °F 37.4 °F 76% 29.33 in 6.2 mi West 29.9 mph - N/A   Mostly Cloudy
9:39 AM 44.6 °F 34.6 °F 39.2 °F 81% 29.33 in 6.2 mi West 31.1 mph 42.6 mph N/A   Mostly Cloudy
10:00 AM 44 °F - 39 °F 76% 29.33 in 13 mi West 29.1 mph - -   Unknown Precipitation
10:45 AM 42.8 °F 32.5 °F 39.2 °F 87% 29.33 in 4.3 mi West 28.8 mph 42.6 mph N/A Rain Light Rain
10:55 AM 42.8 °F 32.5 °F 39.2 °F 87% 29.33 in 6.2 mi West 28.8 mph - N/A Rain Drizzle
11:08 AM 42.8 °F 33.3 °F 41.0 °F 93% 29.33 in 3.7 mi West 24.2 mph - N/A Rain Light Rain
11:11 AM 42.8 °F 33.5 °F 39.2 °F 87% 29.33 in 3.7 mi WNW 23.0 mph - N/A Rain Light Rain Showers
11:14 AM 42.8 °F 33.5 °F 39.2 °F 87% 29.33 in 3.7 mi WNW 23.0 mph - N/A Rain Light Rain Showers
11:25 AM 42.8 °F 35.8 °F 39.2 °F 87% 29.33 in 6.2 mi WNW 13.8 mph - N/A Rain Light Rain
11:33 AM 44.6 °F 39.2 °F 39.2 °F 81% 29.33 in 6.2 mi NW 10.4 mph - N/A   Mostly Cloudy
11:37 AM 44.6 °F 39.2 °F 39.2 °F 81% 29.33 in 6.2 mi NW 10.4 mph - N/A   Mostly Cloudy
11:46 AM 44.6 °F 38.1 °F 37.4 °F 76% 29.33 in 6.2 mi NW 13.8 mph - N/A   Partly Cloudy
11:55 AM 44.6 °F 37.8 °F 39.2 °F 81% 29.33 in 6.2 mi NW 15.0 mph - N/A   Partly Cloudy
11:57 AM 44.6 °F 37.4 °F 39.2 °F 81% 29.33 in 6.2 mi NW 16.1 mph - N/A   Scattered Clouds
12:05 PM 44.6 °F 36.9 °F 39.2 °F 81% 29.33 in 6.2 mi NW 18.4 mph - N/A   Mostly Cloudy
12:14 PM 44.6 °F 36.9 °F 37.4 °F 76% 29.33 in 6.2 mi NW 18.4 mph - N/A   Mostly Cloudy
12:18 PM 44.6 °F 36.9 °F 37.4 °F 76% 29.33 in 6.2 mi NW 18.4 mph - N/A   Mostly Cloudy
12:25 PM 44.6 °F 36.6 °F 35.6 °F 71% 29.33 in 6.2 mi NW 19.6 mph 31.1 mph N/A   Mostly Cloudy
12:27 PM 44.6 °F 36.6 °F 35.6 °F 71% 29.33 in 6.2 mi NW 19.6 mph 31.1 mph N/A   Scattered Clouds
12:46 PM 44.6 °F 37.2 °F 35.6 °F 71% 29.36 in 6.2 mi NW 17.3 mph - N/A   Scattered Clouds
12:55 PM 44.6 °F 37.8 °F 35.6 °F 71% 29.36 in 6.2 mi NNW 15.0 mph - N/A   Scattered Clouds
12:57 PM 44.6 °F 37.4 °F 35.6 °F 71% 29.36 in 6.2 mi NW 16.1 mph - N/A   Scattered Clouds
1:00 PM 45 °F - 37 °F 66% 29.37 in 14 mi NW 17.9 mph - -   Partly Cloudy
1:01 PM 44.6 °F 37.2 °F 37.4 °F 76% 29.36 in 6.2 mi NW 17.3 mph - N/A   Scattered Clouds
1:05 PM 44.6 °F 37.2 °F 37.4 °F 76% 29.36 in 6.2 mi NW 17.3 mph - N/A   Mostly Cloudy
1:17 PM 44.6 °F 36.4 °F 37.4 °F 76% 29.36 in 6.2 mi NW 20.7 mph 36.8 mph N/A   Scattered Clouds
1:25 PM 44.6 °F 36.4 °F 35.6 °F 71% 29.36 in 6.2 mi NW 20.7 mph 36.8 mph N/A   Scattered Clouds
1:36 PM 44.6 °F 36.9 °F 35.6 °F 71% 29.36 in 6.2 mi NW 18.4 mph - N/A   Mostly Cloudy
1:43 PM 44.6 °F 36.4 °F 35.6 °F 71% 29.36 in 6.2 mi NW 20.7 mph 32.2 mph N/A   Mostly Cloudy
1:55 PM 44.6 °F 36.9 °F 35.6 °F 71% 29.39 in 6.2 mi NW 18.4 mph 32.2 mph N/A   Scattered Clouds
2:25 PM 44.6 °F 37.2 °F 35.6 °F 71% 29.39 in 6.2 mi NNW 17.3 mph - N/A   Scattered Clouds
2:55 PM 44.6 °F 36.4 °F 32.0 °F 61% 29.39 in 6.2 mi NW 20.7 mph - N/A   Partly Cloudy
3:25 PM 42.8 °F 34.8 °F 33.8 °F 70% 29.42 in 6.2 mi NW 17.3 mph 28.8 mph N/A   Mostly Cloudy
3:55 PM 42.8 °F 34.3 °F 33.8 °F 70% 29.42 in 6.2 mi NW 19.6 mph - N/A   Scattered Clouds
4:00 PM 43 °F - 32 °F 55% 29.43 in 19 mi NW 17.9 mph - -   Scattered Clouds
4:25 PM 42.8 °F 34.8 °F 33.8 °F 70% 29.42 in 6.2 mi NNW 17.3 mph - N/A   Mostly Cloudy
4:41 PM 42.8 °F 35.1 °F 32.0 °F 66% 29.42 in - NNW 16.1 mph - N/A   Overcast
4:55 PM 42.8 °F 35.4 °F 33.8 °F 70% 29.42 in 6.2 mi NW 15.0 mph - N/A   Overcast
5:25 PM 42.8 °F 35.1 °F 33.8 °F 70% 29.44 in 6.2 mi NNW 16.1 mph - N/A   Mostly Cloudy
5:55 PM 41.0 °F 33.5 °F 33.8 °F 76% 29.44 in 6.2 mi NNW 13.8 mph - N/A   Overcast
6:25 PM 41.0 °F 33.9 °F 33.8 °F 76% 29.44 in 6.2 mi NNW 12.7 mph - N/A   Mostly Cloudy
6:49 PM 41.0 °F 34.3 °F 35.6 °F 81% 29.47 in 6.2 mi North 11.5 mph - N/A   Mostly Cloudy
6:55 PM 41.0 °F 34.7 °F 35.6 °F 81% 29.47 in 6.2 mi North 10.4 mph - N/A   Mostly Cloudy
7:00 PM 40 °F - 34 °F 70% 29.49 in 22 mi North 11.2 mph - -   Partly Cloudy
7:01 PM 41.0 °F 34.3 °F 33.8 °F 76% 29.47 in 6.2 mi North 11.5 mph - N/A   Overcast
7:14 PM 41.0 °F 34.3 °F 33.8 °F 76% 29.47 in 6.2 mi North 11.5 mph - N/A   Overcast
7:25 PM 39.2 °F 31.2 °F 35.6 °F 87% 29.47 in 6.2 mi North 13.8 mph - N/A   Overcast
7:55 PM 39.2 °F 33.6 °F 35.6 °F 87% 29.50 in 6.2 mi North 8.1 mph - N/A   Mostly Cloudy
7:59 PM 39.2 °F 33.6 °F 35.6 °F 87% 29.50 in 6.2 mi North 8.1 mph - N/A   Mostly Cloudy
8:25 PM 39.2 °F 35.0 °F 33.8 °F 81% 29.50 in 6.2 mi NNE 5.8 mph - N/A   Mostly Cloudy
8:55 PM 39.2 °F 35.0 °F 33.8 °F 81% 29.50 in 6.2 mi North 5.8 mph - N/A   Mostly Cloudy
9:05 PM 37.4 °F 33.8 °F 32.0 °F 81% 29.50 in 6.2 mi North 4.6 mph - N/A   Scattered Clouds
9:25 PM 39.2 °F 34.2 °F 33.8 °F 81% 29.50 in 6.2 mi North 6.9 mph - N/A   Heavy Drizzle
9:27 PM 37.4 °F 30.8 °F 33.8 °F 87% 29.50 in 6.2 mi North 9.2 mph - N/A   Drizzle
9:31 PM 37.4 °F 30.3 °F 33.8 °F 87% 29.50 in 4.3 mi North 10.4 mph - N/A   Drizzle
9:35 PM 37.4 °F 30.8 °F 35.6 °F 93% 29.50 in 6.2 mi North 9.2 mph - N/A Rain Heavy Drizzle
9:39 PM 37.4 °F 31.4 °F 35.6 °F 93% 29.50 in 6.2 mi North 8.1 mph - N/A   Overcast
9:48 PM 37.4 °F 32.1 °F 35.6 °F 93% 29.50 in 6.2 mi North 6.9 mph - N/A   Mostly Cloudy
9:55 PM 37.4 °F 32.1 °F 35.6 °F 93% 29.50 in 6.2 mi North 6.9 mph - N/A   Mostly Cloudy
9:57 PM 37.4 °F 32.1 °F 33.8 °F 87% 29.50 in 6.2 mi North 6.9 mph - N/A   Mostly Cloudy
10:00 PM 37 °F - 35 °F 88% 29.53 in 28 mi NNE 4.5 mph - - Rain Drizzle
10:04 PM 37.4 °F 32.8 °F 35.6 °F 93% 29.50 in 6.2 mi NNE 5.8 mph - N/A   Mostly Cloudy
10:17 PM 37.4 °F 32.8 °F 35.6 °F 93% 29.53 in 6.2 mi North 5.8 mph - N/A   Mostly Cloudy
10:25 PM 35.6 °F 29.9 °F 33.8 °F 93% 29.53 in - North 6.9 mph - N/A Rain Rain
10:27 PM 35.6 °F 29.2 °F 33.8 °F 93% 29.53 in - North 8.1 mph - N/A Rain , Snow Light Rain Showers
10:35 PM 35.6 °F 31.7 °F 33.8 °F 93% 29.53 in 6.2 mi North 4.6 mph - N/A Rain , Snow Light Rain
10:44 PM 35.6 °F - 33.8 °F 93% 29.53 in 6.2 mi WNW 2.3 mph - N/A   Overcast
10:49 PM 35.6 °F - 33.8 °F 93% 29.53 in 6.2 mi WSW 2.3 mph - N/A   Overcast
10:55 PM 35.6 °F 32.8 °F 33.8 °F 93% 29.53 in 6.2 mi WSW 3.5 mph - N/A   Overcast
10:57 PM 35.6 °F 31.7 °F 33.8 °F 93% 29.53 in 6.2 mi WSW 4.6 mph - N/A   Mostly Cloudy
11:04 PM 35.6 °F 31.7 °F 33.8 °F 93% 29.53 in 6.2 mi WSW 4.6 mph - N/A   Mostly Cloudy
11:18 PM 35.6 °F - 33.8 °F 93% 29.53 in - SW 1.2 mph - N/A   Mostly Cloudy
11:25 PM 35.6 °F - 33.8 °F 93% 29.53 in - WNW 1.2 mph - N/A Rain Rain
11:27 PM 35.6 °F - 33.8 °F 93% 29.53 in 3.7 mi NW 1.2 mph - N/A Rain Light Rain Showers
11:33 PM 33.8 °F - 33.8 °F 100% 29.53 in 6.2 mi Calm Calm - N/A   Light Drizzle
11:46 PM 33.8 °F - 33.8 °F 100% 29.53 in 6.2 mi Calm Calm - N/A   Mostly Cloudy
11:55 PM 33.8 °F - 33.8 °F 100% 29.53 in 6.2 mi East 1.2 mph - N/A   Mostly Cloudy